Preview of NWS' New Version of Forecast
This preview is not operational and should not be used for support decisions.

Regional Weather Roundup (RWR)

Issued by National Weather Service (NWS)

                            
000
ASUS42 KTBW 240416
RWRFL 
FLORIDA REGIONAL WEATHER ROUNDUP
NATIONAL WEATHER SERVICE TAMPA BAY RUSKIN FL
1200 AM EDT SUN MAR 24 2019

NOTE: "FAIR" INDICATES FEW OR NO CLOUDS BELOW 12,000 FEET WITH NO
SIGNIFICANT WEATHER AND/OR OBSTRUCTIONS TO VISIBILITY.

FLZ001>010-012>015-112-114-115-240500-
PANHANDLE FLORIDA
  
CITY           SKY/WX    TMP DP  RH WIND       PRES   REMARKS
PENSACOLA      FAIR      55  47  74 CALM      30.23S                  
PENSACOLA NAS  FAIR      49  46  90 CALM      30.22F                  
MILTON NAS     FAIR      46  44  93 CALM      30.23S                  
CRESTVIEW      FAIR      47  40  76 CALM      30.25S                  
DUKE FIELD     FAIR      49  40  72 CALM      30.24R                  
VALPARAISO     FAIR      53  43  69 CALM      30.23S                  
MARY ESTHER    MOCLDY    51  44  79 N3        30.22S                  
PANAMA CITY    FAIR      52  47  83 CALM      30.23S                  
TYNDALL AFB    FAIR      55  50  83 CALM      30.23S                  
APALACHICOLA   FAIR      50  44  80 CALM      30.23S                  

STATION/POSITION SKY/WX   TEMP    WIND        PRES    WAVE   SWELL
                          AIR SEA DIR/SP/G            HT/PER HT/PER
                          (F)     (DEG/KT/KT) (MB)    (FT/S) (FT/S)
30.1N   87.6W                                 1023.8F   1
29.2N   88.2W                     120/  4/  4 1023.8S   1
PANAMA CITY BEAC           64 66              1024.2R
TOWER C                    63      CALM  /  1 1024.1S

$$
FLZ011-016>038-118-127-128-134-139-239-240500-
NORTH FLORIDA
  
CITY           SKY/WX    TMP DP  RH WIND       PRES   REMARKS
MARIANNA       FAIR      58  43  57 CALM      30.24R                  
TALLAHASSEE    FAIR      53  42  66 CALM      30.24R                  
PERRY          FAIR      52  48  87 CALM      30.25S                  
LIVE OAK       CLEAR     52  43  71 CALM      30.26S                  
CROSS CITY     FAIR      56  46  68 CALM      30.26S                  
LAKE CITY      FAIR      54  37  54 E3        30.27S                  
GAINESVILLE    FAIR      57  44  62 E3        30.29R                  
WILLISTON        N/A    N/A N/A N/A MISG        N/A                   
PALATKA        FAIR     N/A N/A N/A CALM      30.27S                  
MAYPORT NAS    FAIR      61  58  90 E8        30.27S                  
JACKSONVILLE   MOCLDY    52  50  93 CALM      30.27R                  
JAX NAS        MOCLDY    60  52  74 E3        30.28S                  
JAX CECIL      FAIR     N/A N/A N/A CALM      30.28R                  
FERNANDINA BEA FAIR      60  56  88 E8        30.28R                  
ST AUGUSTINE   FAIR      57  51  80 CALM      30.28S                  
PALM COAST     FAIR      52  50  92 CALM      30.26F                  

STATION/POSITION SKY/WX   TEMP    WIND        PRES    WAVE   SWELL
                          AIR SEA DIR/SP/G            HT/PER HT/PER
                          (F)     (DEG/KT/KT) (MB)    (FT/S) (FT/S)
SHELL POINT      NOT AVBL
KEATON BEACH               56      30/  3/  4 1024.3S
CEDAR KEY                  59      40/  6/  8 1024.1F
FERNANDINA                 62 63              1025.8R
30.7N   81.3W                 63                N/A     3/ 4
MAYPORT                    62 63              1025.1R
31.4N   80.9W              63 62  100/ 12/ 14 1025.1R   3/13   2/13
ST AUGUSTINE               63 64   50/  8/  8 1025.1S

$$
FLZ040-043>046-052-053-057-058-063-144-240500-
INTERIOR CENTRAL FLORIDA
  
CITY           SKY/WX    TMP DP  RH WIND       PRES   REMARKS
OCALA          FAIR      58  45  62 CALM      30.26S                  
LEESBURG       FAIR      59  50  72 E5        30.26S                  
SANFORD        FAIR      58  53  84 NE5       30.25S                  
ORLANDO EXEC   FAIR      60  54  80 NE7       30.25S                  
ORLANDO INTL   MOCLDY    60  54  80 NE7       30.25S                  
KISSIMMEE      FAIR      62  55  77 NE5       30.26S                  
WINTER HAVEN   FAIR      63  53  70 E8        30.25R                  
LAKELAND       FAIR      63  52  67 SE3       30.24S                  
BARTOW         FAIR      63  52  67 E7        30.23S                  
SEBRING        FAIR      59  54  82 E3        30.25R                  
OKEECHOBEE     FAIR      57  54  88 CALM      30.23S                  

$$
FLZ041-047-054-059-064-141-147-240500-
EAST CENTRAL FLORIDA
  
CITY           SKY/WX    TMP DP  RH WIND       PRES   REMARKS
DAYTONA BEACH  FAIR      60  52  74 NE5       30.26S                  
DELAND         FAIR      55  50  82 CALM      30.25S                  
JFK SPACE CTR  FAIR      55  52  90 NE5       30.24S                  
CAPE CANAVERAL FAIR      59  55  88 N5        30.24R                  
PATRICK AFB    FAIR      65  62  88 NE8       30.24R                  
MELBOURNE      FAIR      66  58  75 NE8       30.24R                  
VERO BEACH     FAIR      58  54  86 CALM      30.23S                  
STUART         FAIR      63  57  82 CALM      30.24R                  

STATION/POSITION SKY/WX   TEMP    WIND        PRES    WAVE   SWELL
                          AIR SEA DIR/SP/G            HT/PER HT/PER
                          (F)     (DEG/KT/KT) (MB)    (FT/S) (FT/S)
28.5N   80.2W              72      90/  8/ 12 1024.4R   2/10   2/10
28.9N   78.5W              70 74   50/  6/ 10 1025.2R   3/11   3/11
TRIDENT PIER               61 68              1025.2R
28.4N   80.5W                 67                N/A     1/13
27.5N   80.2W                 69                N/A     2/10   2/13

$$
FLZ050-056-061-142-242-148-248-149-249-151-251-155-255-
160-260-240500-
WEST CENTRAL FLORIDA
  
CITY           SKY/WX    TMP DP  RH WIND       PRES   REMARKS
CRYSTAL RIVER  FAIR      52  48  87 CALM      30.25S                  
INVERNESS      FAIR      54  46  76 CALM      30.26R                  
BROOKSVILLE    FAIR      55  49  80 CALM      30.25S                  
CLEARWATER AIR FAIR      61  50  67 CALM      30.24R                  
ST PETE CLEARW FAIR      61  52  72 N5        30.24R                  
TAMPA INTL     FAIR      62  50  64 NE3       30.24R                  
TAMPA EXEC     FAIR      55  50  82 CALM      30.25R                  
PLANT CITY     FAIR      64  54  68 CALM      30.26R                  
MACDILL AFB    FAIR      61  50  68 CALM      30.24R                  
PETER O KNIGHT CLOUDY    64  50  59 NE5       30.24R                  
ST PETERSBURG  FAIR      66  53  63 NW5       30.22R                  
SARASOTA       FAIR      62  53  72 N5        30.21R                  
VENICE         FAIR      61  54  77 CALM      30.23R                  

STATION/POSITION SKY/WX   TEMP    WIND        PRES    WAVE   SWELL
                          AIR SEA DIR/SP/G            HT/PER HT/PER
                          (F)     (DEG/KT/KT) (MB)    (FT/S) (FT/S)
27.3N   84.2W                 72                N/A     2/ 5
CLEARWATER BEACH           67 69              1023.8R
MIDDLE TAMPA BAY           67                 1023.7R
VENICE                     65 71  350/  6/  7 1023.3R

$$
FLZ066-069-070-075>078-162-262-165-265-240500-
SOUTHWEST FLORIDA AND KEYS
  
CITY           SKY/WX    TMP DP  RH WIND       PRES   REMARKS
PUNTA GORDA    FAIR      57  53  86 N5        30.23S                  
FT MYERS       FAIR      62  55  77 NE3       30.21R                  
SOUTHWEST INTL FAIR      62  55  77 CALM      30.22R                  
NAPLES         MOCLDY    65  58  78 CALM      30.21S                  
MARCO ISLAND   MOCLDY    63  59  87 CALM      30.23R                  
IMMOKALEE      MOCLDY    61  57  88 SE6       30.20R                  
MARATHON       FAIR      74  60  61 NE8       30.19S                  
KEY WEST NAS   FAIR      72  60  66 E8        30.19S                  
KEY WEST INTL  FAIR      71  60  68 E7        30.19S                  

STATION/POSITION SKY/WX   TEMP    WIND        PRES    WAVE   SWELL
                          AIR SEA DIR/SP/G            HT/PER HT/PER
                          (F)     (DEG/KT/KT) (MB)    (FT/S) (FT/S)
NAPLES                     67 72              1023.0S
26.0N   85.6W              69 79   90/  8/ 12 1022.4
DRY TORTUGAS               73     110/ 13/ 15 1022.0F
SAND KEY                   74                 1022.0F
SOMBRERO KEY               74                 1021.5F

$$
FLZ067-068-071>074-168-172>174-240500-
SOUTHEAST FLORIDA 
  
CITY           SKY/WX    TMP DP  RH WIND       PRES   REMARKS
W PALM BEACH   FAIR      70  55  59 E9        30.22S                  
FT LAUDER-EXEC FAIR      69  53  56 E7        30.21S                  
FT LAUDERDALE  FAIR      71  54  54 E10       30.21S                  
POMPANO BEACH  FAIR      72  53  51 E10       30.21F                  
PEMBROKE PINES FAIR      68  53  58 E5        30.23S                  
OPA LOCKA      FAIR      68  54  60 E6        30.22S                  
MIAMI          FAIR      69  54  58 E8        30.21S                  
WEST KENDALL   FAIR      65  53  65 E3        30.21S                  
HOMESTEAD      FAIR      67  56  67 E5        30.20S                  

STATION/POSITION SKY/WX   TEMP    WIND        PRES    WAVE   SWELL
                          AIR SEA DIR/SP/G            HT/PER HT/PER
                          (F)     (DEG/KT/KT) (MB)    (FT/S) (FT/S)
PORT EVERGLADES            73      70/  9/ 14 1023.2
VIRGINIA KEY               74 76              1022.3S
LAKE WORTH                 72 75              1024.3F
FOWEY ROCKS                73 77   90/ 15/ 16 1023.4F
SETTLEMENT POINT           72     100/ 10/ 12 1023.9S

$$